Regional Weather Roundup
Issued by NWS Burlington, VT

Home | Current Version | Previous Version | Text Only | Print | Product List | Glossary On
Versions: 1 2 3 4 5 6 7 8 9 10 11 12 13 14 15 16 17 18 19 20 21 22 23 24 25 26 27 28 29 30 31 32 33 34 35 36 37 38 39 40 41 42 43 44 45 46 47 48 49 50
000
ASUS41 KBTV 260310
RWRBTV
VERMONT REGIONAL WEATHER ROUNDUP
NATIONAL WEATHER SERVICE BURLINGTON VT
1000 PM EST SAT FEB 25 2017

NOTE: "FAIR" INDICATES FEW OR NO CLOUDS BELOW 12,000 FEET WITH NO
SIGNIFICANT WEATHER AND/OR OBSTRUCTIONS TO VISIBILITY.

* THESE REPORTS ARE NOT UNDER NWS QUALITY CONTROL AND/OR DO NOT
  REPORT WEATHER SUCH AS PRECIPITATION AND FOG.

VTZ001>019-260400-
_____VERMONT_____


CITY           SKY/WX    TMP DP  RH WIND       PRES   REMARKS
BURLINGTON     LGT RAIN  34  33  96 E7        29.56F WCI  28
MONTPELIER     RAIN      35  35 100 CALM      29.55S
MORRISVILLE    MIX PCPN  32  31  96 N3        29.54F
ST. JOHNSBURY*   N/A     36  35  96 MISG      29.51F
LYNDONVILLE*   LGT SNOW  33  33  96 N8        29.52F WCI  27
MIDDLEBURY*    DRIZZLE   36  36 100 CALM      29.59R
RUTLAND*       MOCLDY    36  34  92 CALM      29.60R
SPRINGFIELD    LGT RAIN  38  33  82 NW5       29.57R
HIGHGATE*      LGT SNOW  32  32 100 S5        29.55F WCI  27
NEWPORT*       LGT SNOW  32  32 100 SE3       29.53F
BENNINGTON     LGT RAIN  37  34  89 VRB3      29.60R
SUTTON*          N/A     32 N/A N/A MISG        N/A

_____LAKE CHAMPLAIN_____


CITY           SKY/WX    TMP DP  RH WIND       PRES   REMARKS
BURTON ISLAND*   N/A     34  34 100 SE3         N/A
COLCHESTER RF*   N/A     34  34 100 E5          N/A  WCI  30
DIAMOND ISL*     N/A     36  36 100 MISG        N/A

$$

NYZ007-026>031-035-052-083-087-260400-
_____NORTHERN NEW YORK_____


CITY           SKY/WX    TMP DP  RH WIND       PRES   REMARKS
PLATTSBURGH    LGT RAIN  34  33  96 CALM      29.54S
SARANAC LAKE   CLOUDY    33  32  96 SW10G21   29.52R WCI  25
MASSENA        CLOUDY    38  35  89 W10       29.56S WCI  31
OGDENSBURG*    FAIR      37  33  85 SW13G23   29.58R WCI  28
POTSDAM*       CLOUDY    37  37 100 W17G23    29.56S WCI  28
WATERTOWN      CLOUDY    36  28  73 SW14G25   29.65R WCI  27
FT DRUM        CLOUDY    35  25  68 W12G20    29.61R WCI  27
ALBANY         CLOUDY    38  33  82 NW14      29.64F WCI  30
GLENS FALLS    LGT RAIN  37  34  89 CALM      29.62R

$$
NHZ002-005-011-260400-
_____NEW HAMPSHIRE_____


CITY           SKY/WX    TMP DP  RH WIND       PRES   REMARKS
LEBANON        LGT RAIN  44  39  82 CALM      29.54R
KEENE          LGT RAIN  43  39  87 NW12      29.57R
MT WASHINGTON  HVYSLEET  27  27 100 W41G51      N/A  VSB 0   WCI   8
PLYMOUTH       LGT RAIN  45  42  88 W8        29.47R
WHITEFIELD     RAIN      39  35  86 E8        29.52R FOG

$$

_____REGIONAL QUEBEC LOCATIONS_____


CITY           SKY/WX    TMP DP  RH WIND       PRES   REMARKS
MONTREAL       LGT RAIN  36  34  93 SW13      29.52S WCI  27
QUEBEC CITY    LGT RAIN  34  34 100 SW13      29.44R FOG     WCI  25
SHERBROOKE     LGT SNOW  32  32 100 SW3       29.52S

_____REGIONAL ONTARIO LOCATIONS_____


CITY           SKY/WX    TMP DP  RH WIND       PRES   REMARKS
OTTAWA         CLOUDY    36  28  75 SW16      29.53S WCI  26

______KEY______
VSB  - VISIBILITY IN MILES
WCI  - WIND CHILL INDEX
HX   - HEAT INDEX
$$
NNNN



USA.gov is the U.S. government's official web portal to all federal, state and local government web resources and services.